TimeMST,TemperatureF,Dew PointF,Humidity,Sea Level PressureIn,VisibilityMPH,Wind Direction,Wind SpeedMPH,Gust SpeedMPH,PrecipitationIn,Events,Conditions,WindDirDegrees,DateUTC
1:53 AM,48.0,25.0,41,30.04,-9999.0,SW,9.2,-,N/A,,Clear,230,2012-11-20 08:53:00
2:53 AM,46.0,25.0,44,30.04,-9999.0,SSW,10.4,-,N/A,,Clear,210,2012-11-20 09:53:00
3:53 AM,50.0,26.1,39,30.02,-9999.0,WSW,23.0,28.8,N/A,,Clear,250,2012-11-20 10:53:00
4:53 AM,50.0,25.0,38,30.04,-9999.0,WSW,24.2,32.2,N/A,,Clear,250,2012-11-20 11:53:00
5:53 AM,50.0,25.0,38,30.04,-9999.0,West,19.6,26.5,N/A,,Clear,260,2012-11-20 12:53:00
6:53 AM,48.9,25.0,39,30.06,-9999.0,WSW,13.8,-,N/A,,Clear,250,2012-11-20 13:53:00
7:53 AM,52.0,26.1,37,30.08,-9999.0,West,20.7,27.6,N/A,,Clear,260,2012-11-20 14:53:00
8:53 AM,53.1,26.1,35,30.04,-9999.0,West,19.6,24.2,N/A,,Clear,260,2012-11-20 15:53:00
9:53 AM,59.0,26.1,28,30.05,-9999.0,West,24.2,28.8,N/A,,Clear,260,2012-11-20 16:53:00
10:53 AM,61.0,26.1,26,30.01,-9999.0,West,24.2,35.7,N/A,,Clear,260,2012-11-20 17:53:00
11:53 AM,64.0,26.1,24,29.98,-9999.0,West,23.0,29.9,N/A,,Clear,270,2012-11-20 18:53:00
12:53 PM,64.9,26.1,23,29.96,-9999.0,West,24.2,32.2,N/A,,Clear,260,2012-11-20 19:53:00
1:53 PM,64.9,26.1,23,29.94,-9999.0,West,18.4,27.6,N/A,,Clear,270,2012-11-20 20:53:00
2:53 PM,61.0,26.1,26,29.96,-9999.0,West,19.6,-,N/A,,Clear,260,2012-11-20 21:53:00
3:53 PM,57.9,26.1,30,29.96,-9999.0,WSW,13.8,-,N/A,,Clear,250,2012-11-20 22:53:00
4:53 PM,54.0,26.1,34,29.99,-9999.0,SSW,5.8,-,N/A,,Clear,200,2012-11-20 23:53:00
5:53 PM,52.0,26.1,37,29.98,-9999.0,SE,5.8,-,N/A,,Clear,130,2012-11-21 00:53:00
6:53 PM,48.9,25.0,39,29.99,-9999.0,ESE,3.5,-,N/A,,Clear,110,2012-11-21 01:53:00
7:53 PM,51.1,23.0,33,29.97,-9999.0,SSW,4.6,-,N/A,,Clear,200,2012-11-21 02:53:00
8:53 PM,50.0,21.9,33,29.95,-9999.0,SW,8.1,17.3,N/A,,Clear,220,2012-11-21 03:53:00
9:53 PM,53.1,21.9,30,29.93,-9999.0,SSW,9.2,-,N/A,,Clear,200,2012-11-21 04:53:00
10:53 PM,55.9,21.9,27,29.89,-9999.0,SSW,17.3,25.3,N/A,,Clear,210,2012-11-21 05:53:00
11:53 PM,55.9,21.9,27,29.88,-9999.0,SW,24.2,31.1,N/A,,Clear,230,2012-11-21 06:53:00